2024-247AA

Last updated on Thu Jan 16 2025 00:02:04 GMT+0000 (Coordinated Universal Time)

1 62401U 24247AA 25014.65163519 .00014207 00000+0 65624-3 0 9999 2 62401 44.9909 230.5199 0004201 134.5630 225.5594 15.20156289 3822
UTC large
Height (km)
Speed (km/s)
/
Latitude / Longitude
Inclination (degrees)
Orbital Period (minutes)
Azimuth
Elevation
Range (km)
Doppler Factor

Next 0 passes for location: London (51.5072 / 0.1276)

Sorry there are no passes over London.